Regional Weather Roundup
Issued by NWS

Home | Current Version | Previous Version | Graphics & Text | Print | Product List | Glossary On
Versions: 1 2 3 4 5 6 7 8 9 10 11 12 13 14 15 16 17 18 19 20 21 22 23 24 25 26 27 28 29 30 31 32 33 34 35 36 37 38 39 40 41 42 43 44 45 46 47 48 49 50
000
ASUS43 KMPX 230301
RWRMN
WEATHER ROUNDUP FOR MINNESOTA
NATIONAL WEATHER SERVICE TWIN CITIES/CHANHASSEN MN
1000 PM CDT FRI MAY 22 2015


NOTE: "FAIR" INDICATES FEW OR NO CLOUDS BELOW 12,000 FEET WITH NO
SIGNIFICANT WEATHER AND/OR OBSTRUCTIONS TO VISIBILITY. N/A MEANS
CURRENT SKY AND/OR WEATHER CONDITIONS ARE NOT AVAILABLE.

MNZ060>063-068>070-230400-
   Twin Cities Metro

CITY           SKY/WX    TMP DP  RH WIND       PRES   REMARKS
TWIN CITIES    MOCLDY    67  37  33 NE3       30.19R
ST PAUL        MOCLDY    60  44  55 CALM      30.20R
CRYSTAL        MOCLDY    60  40  47 CALM      30.18R
BLAINE         MOCLDY    63  41  45 SE5       30.20R
LAKEVILLE      MOCLDY    57  41  54 CALM      30.20R
EDEN PRAIRIE   MOCLDY    63  37  38 NE5       30.18R
SOUTH ST PAUL  MOCLDY    62  41  46 CALM      30.19R
LAKE ELMO      FAIR      54  45  71 E3        30.21R
$$
MNZ001>005-007-008-013>017-022>024-027-028-230400-
   Northwest Minnesota

CITY           SKY/WX    TMP DP  RH WIND       PRES   REMARKS
BEMIDJI        CLEAR     57  42  57 CALM      30.15R
HALLOCK        PTCLDY    61  46  59 S8        30.10R
ROSEAU         PTCLDY    63  45  51 SW8       30.11R
WARROAD        PTCLDY    64  45  48 SW5       30.11R
THIEF RVR FALL CLEAR     64  37  36 CALM      30.14R
CROOKSTON      CLEAR     61  39  44 SW6       30.14R
FOSSTON        CLEAR     57  43  58 SW6       30.16R
DETROIT LAKES  CLEAR     63  39  42 CALM      30.18R
MOORHEAD       PTCLDY    66  39  37 SE3       30.14S
PARK RAPIDS    CLEAR     62  39  42 S6        30.16R
MAHNOMEN       FAIR      60  42  50 S7        30.14S
$$
MNZ006-009>011-018-025>026-230400-
   North Central Minnesota

CITY           SKY/WX    TMP DP  RH WIND       PRES   REMARKS
BAUDETTE       CLEAR     61  42  49 CALM      30.11R
INTL FALLS     PTCLDY    53  43  68 W3        30.11R
WASKISH        CLEAR     64  41  42 CALM      30.13S
BIG FORK       CLEAR     54  43  66 CALM      30.15R
LONGVILLE      CLEAR     52  43  71 CALM      30.16S
GRAND RAPIDS   CLEAR     52  39  62 S3        30.17R
CRANE LAKE     CLEAR     50  45  81 CALM      30.13S
ORR            CLEAR     59  36  41 CALM      30.11S
COOK           CLEAR     57  39  51 SW3       30.15R
WALKER         FAIR      58  41  53 CALM      30.15R
$$
MNZ012-019>021-037-230400-
   Northeast Minnesota

CITY           SKY/WX    TMP DP  RH WIND       PRES   REMARKS
DULUTH         CLEAR     59  36  42 SW5       30.18R
ELY            CLEAR     57  36  44 SW5       30.14R
HIBBING        CLEAR     50  36  58 CALM      30.15R
EVELETH        CLEAR     52  37  58 CALM      30.17R
DULUTH HARBOR  CLEAR     43  36  75 CALM      30.20R
TWO HARBORS    CLEAR     48  37  66 CALM      30.16R
SILVER BAY     CLEAR     46  36  66 CALM      30.16R
GRAND MARAIS     N/A     40  33  76 CALM      30.17S
G MARAIS ARPRT CLEAR     43  27  52 CALM      30.18S
$$
MNZ029>031-032-039>041-046>048-054>057-064-230400-
   West Central Minnesota

CITY           SKY/WX    TMP DP  RH WIND       PRES   REMARKS
FERGUS FALLS   PTCLDY    66  36  32 E6        30.16R
WHEATON        MOCLDY    55  43  62 SE7       30.16R
MORRIS         MOCLDY    59  43  55 E7        30.15R
ALEXANDRIA     PTCLDY    61  37  41 E7        30.18S
ELBOW LAKE     FAIR      63  42  46 CALM      30.16R
WADENA         CLEAR     59  41  51 CALM      30.17R
GLENWOOD       PTCLDY    61  39  44 E5        30.18S
APPLETON       MOCLDY    61  39  44 E7        30.14R
BENSON         MOCLDY    64  36  34 SE5       30.16R
ORTONVILLE     MOCLDY    64  37  36 E8        30.14R
MADISON        CLOUDY    61  36  39 E8        30.14R
WILLMAR        FAIR      64  41  42 E7        30.19R
$$
MNZ033>034-036-042>043-049>051-058-059-230400-
   Central Minnesota

CITY           SKY/WX    TMP DP  RH WIND       PRES   REMARKS
ST CLOUD       PTCLDY    55  43  63 E5        30.19R
SAUK CENTRE    FAIR      61  38  43 E5        30.18S
PAYNESVILLE    MOCLDY    60  36  41 E6        30.19R
AITKIN         CLEAR     54  43  66 CALM      30.17R
PINE RIVER     CLEAR     55  45  67 CALM      30.20R
BRAINERD       CLEAR     57  40  52 CALM      30.18R
STAPLES        CLEAR     61  37  41 CALM      30.18R
LONG PRAIRIE   FAIR      57  39  51 CALM      30.19R
LITTLE FALLS   CLEAR     54  37  54 CALM      30.19R
LITCHFIELD     MOCLDY    61  43  51 E6        30.19R
BUFFALO        MOCLDY    60  44  57 CALM      30.20R
MAPLE LAKE     MOCLDY    56  46  70 CALM      30.20R
$$
MNZ037-044-045-052-053-230400-
   East Central Minnesota

CITY           SKY/WX    TMP DP  RH WIND       PRES   REMARKS
PRINCETON      PTCLDY    55  43  62 CALM      30.20R
MORA           CLEAR     52  41  66 CALM      30.21S
CAMBRIDGE      PTCLDY    59  43  55 CALM      30.19R
RUSH CITY      PTCLDY    51  41  66 CALM      30.20R
MOOSE LAKE     PTCLDY    52  37  58 CALM      30.17R
HINCKLEY       FAIR      52  46  82 CALM      30.19R
CLOQUET        CLEAR     57  34  41 SE3       30.18R
MCGREGOR       CLEAR     57  43  58 CALM      30.18R
$$
MNZ071>073-080-081-089-090-097-098-230400-
   Southwest Minnesota

CITY           SKY/WX    TMP DP  RH WIND       PRES   REMARKS
MONTEVIDEO     MOCLDY    61  39  44 SE6       30.16R
GRANITE FALLS  MOCLDY    64  33  31 E5        30.17R
CANBY          CLOUDY    64  41  43 W12       30.17R
MARSHALL       CLOUDY    64  39  39 W15       30.17R
REDWOOD FALLS  CLOUDY    66  36  32 SE7       30.16R
OLIVIA         MOCLDY    63  32  31 E5        30.16S
WINDOM         CLOUDY    63  41  45 SW10G18   30.20R
WORTHINGTON    CLOUDY    59  39  47 SW14      30.21R
JACKSON        CLOUDY    63  41  45 W12       30.21R
TRACY          CLOUDY    65  42  43 W15G22    30.19R
SLAYTON        CLOUDY    60  41  50 W13       30.21R
$$
MNZ065>067-074>077-082>085-091>093-230400-
   South Central Minnesota

CITY           SKY/WX    TMP DP  RH WIND       PRES   REMARKS
MANKATO        CLOUDY    64  36  34 E9        30.19R
NEW ULM        CLOUDY    63  36  36 SE7       30.18R
ST JAMES       CLOUDY    66  36  32 SE6       30.19R
FAIRMONT       CLOUDY    63  34  34 S6        30.18R
GLENCOE        MOCLDY    62  41  47 E6        30.18R
FARIBAULT      CLOUDY    61  41  48 CALM      30.20R
OWATONNA       CLOUDY    63  36  36 E6        30.20R
WASECA         CLOUDY    63  37  39 NE9       30.21R
ALBERT LEA     CLOUDY    61  45  55 CALM      30.20R
$$
MNZ078>079-086>088-094>096-230400-
   Southeast Minnesota

CITY           SKY/WX    TMP DP  RH WIND       PRES   REMARKS
ROCHESTER      CLOUDY    61  38  42 E7        30.22R
RED WING       MOCLDY    55  45  67 CALM      30.20R
STANTON        MOCLDY    64  35  33 E5        30.19R
DODGE CENTER   CLOUDY    61  39  44 E6        30.21R
WINONA         MOCLDY    55  46  71 CALM      30.22R
AUSTIN         CLOUDY    61  43  51 E6        30.20R
PRESTON        CLOUDY    61  35  37 E6        30.22R
$$
ABBREVIATIONS USED IN REMARKS
   TC - TEMPERATURES IN CELSIUS
  WCI - WIND CHILL INDEX
   HX - HEAT INDEX
  VSB - VISIBILITY
$$


USA.gov is the U.S. government's official web portal to all federal, state and local government web resources and services.